Kleine Brogel, Belgium

9:50 AM CEST on June 24, 2017 (GMT +0200)
Kleine-Brogel Air Base

Weather History for EBBL - October, 2012

Change the Weather History Date:

Wednesday, October 24, 2012

  Actual Average Record
Temperature  
Mean Temperature 55 °F -  
Max Temperature 64 °F 48 °F 64 °F (2012)
Min Temperature 46 °F 39 °F 21 °F (2003)
Degree Days  
Heating Degree Days 10    
Growing Degree Days 5 (Base 50)    
Moisture  
Dew Point 50 °F    
Average Humidity 87    
Maximum Humidity 100    
Minimum Humidity 56    
Precipitation  
Precipitation 0.00 in - - ()
Sea Level Pressure  
Sea Level Pressure 30.13 in    
Wind  
Wind Speed 6 mph ()    
Max Wind Speed 9 mph    
Max Gust Speed -    
Visibility 2.0 miles    
Events Fog    
Averages and records for this station are not official NWS values.
T = Trace of Precipitation, MM = Missing Value Source: Averaged Metar Reports

Daily Weather History Graph

Daily Weather History Graph

Search for Another Location

Airport or City:

Trip Planner

Search our weather history database for the weather conditions in past years. The results will help you decide how hot, cold, wet, or windy it might be!

Date:

Astronomy

Oct. 24, 2012 Rise Set
Actual Time 8:17 AM CEST 6:26 PM CEST
Civil Twilight 7:43 AM CEST 7:00 PM CEST
Nautical Twilight 7:04 AM CEST 7:39 PM CEST
Astronomical Twilight 6:26 AM CEST 8:17 PM CEST
Moon 4:03 PM CEST 2:22 AM CEST
Length of Visible Light 11h 17m
Length of Day
10h 08m
Waxing Gibbous, 73% of the Moon is Illuminated
Oct 24
Waxing Gibbous
Oct 29
Full
Nov 7
Last Quarter
Nov 13
New
Nov 20
First Quarter

Hourly Weather History & Observations

Time (CEST) Temp. Windchill Dew Point Humidity Pressure Visibility Wind Dir Wind Speed Gust Speed Precip Events Conditions
12:25 AM 51.8 °F - 50.0 °F 94% 30.18 in 2.2 mi NE 6.9 mph - N/A   Partly Cloudy
12:55 AM 51.8 °F - 50.0 °F 94% 30.18 in 2.2 mi NE 6.9 mph - N/A   Partly Cloudy
1:25 AM 51.8 °F - 50.0 °F 94% 30.21 in 2.2 mi NE 5.8 mph - N/A   Partly Cloudy
1:55 AM 50.0 °F - 48.2 °F 94% 30.18 in 2.2 mi ENE 4.6 mph - N/A   Scattered Clouds
2:00 AM 50 °F - 49 °F 95% 30.21 in 2 mi NE 4.5 mph - -   Mist
2:25 AM 50.0 °F - 48.2 °F 94% 30.18 in 1.9 mi ENE 4.6 mph - N/A   Mostly Cloudy
3:25 AM 48.2 °F - 48.2 °F 100% 30.18 in 1.9 mi ENE 4.6 mph - N/A   Mostly Cloudy
3:55 AM 48.2 °F - 46.4 °F 93% 30.18 in 2.2 mi Variable 3.5 mph - N/A   Partly Cloudy
4:25 AM 48.2 °F - 46.4 °F 93% 30.15 in 2.2 mi ENE 4.6 mph - N/A   Clear
4:30 AM 48.2 °F - 46.4 °F 93% 30.15 in 2.5 mi ENE 4.6 mph - N/A   Clear
4:55 AM 48.2 °F - 48.2 °F 100% 30.15 in 2.5 mi ENE 5.8 mph - N/A   Partly Cloudy
5:00 AM 49 °F - 47 °F 92% 30.18 in 3 mi ENE 6.7 mph - -   Mist
5:25 AM 48.2 °F - 46.4 °F 93% 30.15 in 2.5 mi ENE 5.8 mph - N/A   Clear
5:33 AM 48.2 °F - 46.4 °F 93% 30.15 in 3.1 mi East 4.6 mph - N/A   Scattered Clouds
5:55 AM 48.2 °F - 46.4 °F 93% 30.15 in 3.7 mi Variable 2.3 mph - N/A   Scattered Clouds
6:08 AM 48.2 °F - 46.4 °F 93% 30.15 in 3.7 mi Variable 2.3 mph - N/A   Partly Cloudy
6:25 AM 48.2 °F - 46.4 °F 93% 30.15 in 3.1 mi Variable 2.3 mph - N/A   Scattered Clouds
6:55 AM 46.4 °F - 46.4 °F 100% 30.12 in 3.1 mi Variable 2.3 mph - N/A   Scattered Clouds
7:01 AM 46.4 °F - 46.4 °F 100% 30.12 in 2.8 mi Variable 2.3 mph - N/A   Scattered Clouds
7:25 AM 46.4 °F - 46.4 °F 100% 30.12 in 2.5 mi Variable 2.3 mph - N/A   Mostly Cloudy
7:50 AM 46.4 °F 45.2 °F 46.4 °F 100% 30.12 in 2.2 mi Variable 3.5 mph - N/A   Mostly Cloudy
7:55 AM 46.4 °F 42.9 °F 46.4 °F 100% 30.12 in 1.9 mi NNE 6.9 mph - N/A   Scattered Clouds
8:00 AM 47 °F - 46 °F 95% 30.15 in 2 mi NNE 6.7 mph - -   Mist
8:25 AM 46.4 °F 44.3 °F 46.4 °F 100% 30.12 in 1.9 mi NE 4.6 mph - N/A   Scattered Clouds
8:55 AM 48.2 °F - 46.4 °F 93% 30.12 in 1.9 mi Variable 3.5 mph - N/A   Scattered Clouds
9:25 AM 48.2 °F - 46.4 °F 93% 30.12 in 1.9 mi NE 5.8 mph - N/A   Partly Cloudy
9:55 AM 50.0 °F - 48.2 °F 94% 30.15 in 1.9 mi NE 8.1 mph - N/A   Scattered Clouds
10:25 AM 51.8 °F - 48.2 °F 88% 30.15 in 1.9 mi NNW 6.9 mph - N/A   Scattered Clouds
10:55 AM 53.6 °F - 50.0 °F 88% 30.15 in - ENE 6.9 mph - N/A   Partly Cloudy
11:00 AM 54 °F - 50 °F 80% 30.17 in 2 mi ENE 6.7 mph - -   Mist
11:25 AM 57.2 °F - 50.0 °F 77% 30.15 in - ENE 6.9 mph - N/A   Partly Cloudy
11:31 AM 57.2 °F - 50.0 °F 77% 30.15 in - ENE 8.1 mph - N/A   Partly Cloudy
11:55 AM 57.2 °F - 50.0 °F 77% 30.15 in 2.2 mi ENE 6.9 mph - N/A   Partly Cloudy
12:24 PM 60.8 °F - 51.8 °F 72% 30.15 in 2.5 mi NE 8.1 mph - N/A   Partly Cloudy
12:25 PM 60.8 °F - 51.8 °F 72% 30.15 in 2.5 mi NE 9.2 mph - N/A   Partly Cloudy
12:50 PM 62.6 °F - 51.8 °F 68% 30.15 in 3.1 mi NE 8.1 mph - N/A   Partly Cloudy
12:55 PM 60.8 °F - 51.8 °F 72% 30.15 in 3.1 mi NE 8.1 mph - N/A   Partly Cloudy
1:25 PM 62.6 °F - 51.8 °F 68% 30.12 in 3.1 mi NE 8.1 mph - N/A   Partly Cloudy
1:55 PM 62.6 °F - 51.8 °F 68% 30.12 in 3.1 mi ENE 5.8 mph - N/A   Partly Cloudy
2:00 PM 63 °F - 51 °F 56% 30.13 in 3 mi ENE 6.7 mph - -   Mist
2:23 PM 64.4 °F - 51.8 °F 64% 30.12 in 2.5 mi East 6.9 mph - N/A   Partly Cloudy
2:25 PM 64.4 °F - 51.8 °F 64% 30.12 in 2.5 mi East 6.9 mph - N/A   Partly Cloudy
2:55 PM 64.4 °F - 51.8 °F 64% 30.09 in 2.5 mi ENE 6.9 mph - N/A   Partly Cloudy
3:25 PM 64.4 °F - 53.6 °F 68% 30.09 in 2.5 mi NE 6.9 mph - N/A   Partly Cloudy
3:55 PM 64.4 °F - 51.8 °F 64% 30.09 in 2.5 mi NNE 9.2 mph - N/A   Partly Cloudy
4:25 PM 62.6 °F - 53.6 °F 72% 30.09 in 2.5 mi NE 8.1 mph - N/A   Scattered Clouds
4:55 PM 59.0 °F - 51.8 °F 77% 30.09 in 2.5 mi NE 8.1 mph - N/A   Scattered Clouds
5:00 PM 60 °F - 52 °F 67% 30.10 in 2 mi NE 8.9 mph - -   Mist
5:25 PM 57.2 °F - 51.8 °F 82% 30.09 in 2.5 mi NE 6.9 mph - N/A   Scattered Clouds
5:30 PM 57.2 °F - 51.8 °F 82% 30.09 in 1.9 mi NE 6.9 mph - N/A   Scattered Clouds
5:55 PM 57.2 °F - 51.8 °F 82% 30.09 in 1.9 mi ENE 5.8 mph - N/A   Scattered Clouds
6:25 PM 55.4 °F - 50.0 °F 82% 30.09 in 1.9 mi ENE 9.2 mph - N/A   Mostly Cloudy
6:55 PM 53.6 °F - 50.0 °F 88% 30.09 in 1.6 mi ENE 4.6 mph - N/A   Partly Cloudy
7:07 PM 53.6 °F - 50.0 °F 88% 30.09 in 1.6 mi ENE 6.9 mph - N/A   Scattered Clouds
7:25 PM 53.6 °F - 50.0 °F 88% 30.09 in 1.4 mi NNE 5.8 mph - N/A   Scattered Clouds
7:55 PM 51.8 °F - 50.0 °F 94% 30.09 in 1.6 mi NE 6.9 mph - N/A   Scattered Clouds
8:00 PM 53 °F - 51 °F 88% 30.11 in 2 mi NE 6.7 mph - -   Mist
8:25 PM 53.6 °F - 50.0 °F 88% 30.09 in 1.4 mi NE 6.9 mph - N/A   Mostly Cloudy
8:48 PM 53.6 °F - 51.8 °F 94% 30.09 in 1.4 mi ENE 8.1 mph - N/A   Overcast
8:55 PM 51.8 °F - 51.8 °F 100% 30.09 in 1.0 mi ENE 8.1 mph - N/A   Overcast
9:03 PM 51.8 °F - 51.8 °F 100% 30.06 in 0.9 mi ENE 8.1 mph - N/A   Overcast
9:23 PM 51.8 °F - 50.0 °F 94% 30.09 in 0.7 mi ENE 9.2 mph - N/A   Overcast
9:25 PM 51.8 °F - 50.0 °F 94% 30.09 in 0.7 mi ENE 9.2 mph - N/A   Overcast
9:37 PM 51.8 °F - 50.0 °F 94% 30.09 in 0.4 mi ENE 8.1 mph - N/A Fog Fog
9:55 PM 51.8 °F - 50.0 °F 94% 30.09 in 0.4 mi ENE 5.8 mph - N/A Fog Fog
10:25 PM 51.8 °F - 50.0 °F 94% 30.09 in 0.3 mi East 5.8 mph - N/A Fog Fog
10:55 PM 51.8 °F - 50.0 °F 94% 30.06 in 0.3 mi ENE 5.8 mph - N/A Fog Fog
11:25 PM 51.8 °F - 51.8 °F 100% 30.09 in 0.4 mi East 8.1 mph - N/A Fog Fog
11:54 PM 51.8 °F - 50.0 °F 94% 30.09 in 0.5 mi East 4.6 mph - N/A Fog Fog
11:55 PM 51.8 °F - 50.0 °F 94% 30.09 in 0.5 mi East 4.6 mph - N/A Fog Fog